CZ-6A DEB, 54350

Orbit data source: Space-Track

CZ-6A DEB, 54350 is space debris in SSO originally from a launch on Fri, 11 Nov 2022 UTC launched from the Taiyaun Space Center, China (TSC). Debris objects in space refer to the collection of defunct objects orbiting the Earth. Examples of debris include non-operational satellites, rocket bodies, and fragments generated from explosions, collisions, or faulty payload assembly.

Loading next visibility...
Identifier
54350, 2022-151CV
Orbit
SSO
Country
Flag of CNCN / PRC
Related business
Manufacturer
SAST
Mission
Spacecraft
Bus & Motor
Unknown
Mass
Unknown
Launch date (UTC)
2022-11-11 (4 years ago)
Launch vehicle
Unknown
Launch site
Taiyaun Space Center, China (TSC)
Object type
Payload
Rocket body
Debris
Shape & HBR
Unknown shape, 0.1 m
Radar Cross Section
Medium (>0.1 m² and <1 m²)

Expand to show TLE details & history
Last TLE update: 15 hours ago

TLE from 15 hours ago
0 CZ-6A DEB
1 54350U 22151CV  26235.86519786  .00000151  00000-0  67140-4 0  9995
2 54350  98.6975 281.4890 0068360 137.7664 222.8814 14.34888364197342
Epoch: 2026-08-23T20:45Z
TLE epoch observation values (Epoch: 2026-08-23T20:45:53.095Z)
Latitude
-0.00006°
Longitude
-2.13734°
Altitude
814.367 km
Speed
7.427 km/s
True Right ascension
18h 45m 57s
True Declination
0° 00' 00"
Sunlit
Object was in full shadow at epoch
Visualization orbit readout
Latitude
Unknown
Longitude
Unknown
Altitude
Unknown
Speed
Unknown
Apparent Right ascension
Unknown
Apparent Declination
Unknown
Sunlit
N/A
Visualization observer readout
Local Sidereal Time
02:51:33
Azimuth
Unknown
Elevation
Unknown
Doppler factor
Unknown
Orbital elements
Apogee altitude
821.458 km
Perigee altitude
723.693 km
Semi-major axis
7,150.712 km
Eccentricity
0.00684
Inclination
98.6975°
RAAN
281.489°
Arg. of periapsis
137.7664°
True anomaly
222.35167°
Mean anomaly
222.8814°
Eccentric anomaly
222.6162°
Mean motion
3.58938 °/min
Orbital period
100.3 mins
BSTAR
0.00006714
Loading maneuver chart data...
Computing Atmospheric mass density...
Loading historical data...
Loading historical data...
Loading historical data...
Loading historical data...
Loading historical data...
Loading historical data...
Loading historical data...

Documentation

Showing up to 5 results
|